sat.trackr.live / text

‹ back to catalog

STARLINK-6278

NORAD 56412 · 2023-061AQ

PAYLOAD ACTIVE UNKNOWN

§ Identity

Operator
Country
US
Launch date
2023-05-04
Launch site
AFETR
Launch vehicle
Mass (kg)
RCS (m²)

Purposes: comms

External: N2YO · Heavens-Above · Gunter

§ Orbital elements

Epoch: 2026-05-24T23:21:05.141088Z

Period
94.27 min
Inclination
43.0046°
Eccentricity
0.0001427
Mean motion
15.27573888 rev/d
Perigee alt
482.1 km
Apogee alt
484.0 km
Semi-major
6,861.2 km
B*
2.5030e-5
RAAN
116.0117°
Arg perigee
284.9235°
Mean anomaly
75.1458°
Rev number
16,854

§ Raw data

STARLINK-62781 56412U 23061AQ  26144.97297617  .00000426  00000+0  25030-4 0  99902 56412  43.0046 116.0117 0001427 284.9235  75.1458 15.27573888168549

JSON: /api/v1/satellites/56412 · /tle

For live sub-satellite position, see the globe view (requires WebGL).

§ Visibility from observer

Set your observer location to see the next 7 days of passes ≥ 10°. The values pass through the URL so the page stays shareable.

No JS? Fill the form by hand. The geolocation button needs JavaScript.